KE7YUP Weather Reports


time (UTC)temp
F
wind
direction
speed
knots
gust
knots
rain 1hr
in
rain 24hr
in
rain mn
in
humidity
%
barometer
mb
20260505073817 54 129 2.6 6.1 0.00 0.00 0.00 68 1012.3
20260505072818 54 156 4.3 6.1 0.00 0.00 0.00 64 1012.8
20260505071816 54 175 1.7 3.5 0.00 0.00 0.00 63 1012.4
20260505070816 53 142 4.3 8.7 0.00 0.00 0.00 65 1012.5
20260505065817 53 164 0.9 3.5 0.00 0.00 0.00 66 1012.5
20260505064816 53 239 0.9 1.7 0.00 0.00 0.00 66 1012.4
20260505063816 53 199 3.5 5.2 0.00 0.00 0.00 65 1012.4
20260505062816 53 219 1.7 8.7 0.00 0.00 0.00 64 1011.9
20260505061816 53 190 4.3 9.6 0.00 0.00 0.00 64 1012.0
20260505060836 53 194 7.0 12.2 0.00 0.00 0.00 64 1012.1
20260505055815 53 235 8.7 12.2 0.00 0.00 0.00 65 1011.7
20260505054816 53 200 9.6 15.6 0.00 0.00 0.00 67 1011.6
20260505053816 53 203 9.6 14.8 0.00 0.00 0.00 69 1011.8
20260505052815 53 201 7.8 13.9 0.00 0.00 0.00 69 1011.8
20260505051856 53 209 7.0 12.2 0.00 0.00 0.00 69 1011.7
20260505050815 54 213 8.7 16.5 0.00 0.00 0.00 69 1011.9
20260505040815 57 233 7.0 13.9 0.00 0.00 0.00 57 1011.0
20260505035815 58 194 7.0 11.3 0.00 0.00 0.00 52 1010.9
20260505034815 59 194 5.2 8.7 0.00 0.00 0.00 48 1010.6
20260505033815 59 185 2.6 6.1 0.00 0.00 0.00 47 1010.3
20260505032815 59 240 4.3 7.8 0.00 0.00 0.00 47 1010.0
20260505031815 60 215 3.5 6.1 0.00 0.00 0.00 47 1009.9
20260505030815 60 245 2.6 7.0 0.00 0.00 0.00 49 1010.1
20260505025815 60 214 5.2 8.7 0.00 0.00 0.00 52 1009.5
20260505024815 61 241 8.7 14.8 0.00 0.00 0.00 46 1009.7
20260505023815 61 177 2.6 5.2 0.00 0.00 0.00 44 1009.4
20260505022815 62 158 2.6 7.0 0.00 0.00 0.00 45 1008.9
20260505021835 62 130 3.5 6.1 0.00 0.00 0.00 45 1008.9
20260505020835 62 157 6.1 7.8 0.00 0.00 0.00 45 1008.9
20260505015815 62 144 6.1 10.4 0.00 0.00 0.00 45 1008.7
20260505014815 62 127 3.5 8.7 0.00 0.00 0.00 47 1008.9
20260505013815 63 136 6.1 12.2 0.00 0.00 0.00 47 1008.8
20260505012815 63 131 6.1 10.4 0.00 0.00 0.00 45 1008.8
20260505011817 65 106 8.7 11.3 0.00 0.00 0.00 42 1009.0
20260505010835 66 174 3.5 6.1 0.00 0.00 0.00 35 1008.7
20260505005817 66 170 1.7 3.5 0.00 0.00 0.00 33 1008.7
20260505004817 66 165 0.0 4.3 0.00 0.00 0.00 33 1008.7
20260505003857 66 158 4.3 7.0 0.00 0.00 0.00 33 1008.7
20260505002817 66 167 4.3 9.6 0.00 0.00 0.00 33 1008.5
20260505001815 67 111 0.9 5.2 0.00 0.00 0.00 31 1008.8
20260505000817 67 67 3.5 7.0 0.00 0.00 0.00 32 1008.9
20260504235817 67 56 4.3 7.0 0.00 0.00 0.00 33 1008.9
20260504234817 68 114 0.9 2.6 0.00 0.00 0.00 29 1009.2
20260504233816 67 257 1.7 6.1 0.00 0.00 0.00 31 1008.8
20260504232817 66 324 0.9 1.7 0.00 0.00 0.00 32 1008.7
20260504231816 65 353 5.2 7.0 0.00 0.00 0.00 35 1008.6
20260504230817 65 321 7.0 9.6 0.00 0.00 0.00 36 1008.5
20260504225816 65 288 4.3 9.6 0.00 0.00 0.00 35 1008.9
20260504224816 64 251 10.4 13.9 0.00 0.00 0.00 36 1009.1
20260504223816 65 283 11.3 13.9 0.00 0.00 0.00 37 1009.1
20260504222817 65 291 8.7 14.8 0.00 0.00 0.00 37 1009.1
20260504221816 66 288 10.4 14.8 0.00 0.00 0.00 39 1009.4
20260504220816 67 263 9.6 15.6 0.00 0.00 0.00 37 1009.3
20260504215817 66 290 8.7 13.9 0.00 0.00 0.00 38 1008.9
20260504214816 66 291 9.6 13.0 0.00 0.00 0.00 40 1009.1
20260504213816 64 279 6.1 12.2 0.00 0.00 0.00 39 1008.9
20260504212817 64 277 6.1 9.6 0.00 0.00 0.00 41 1009.3
20260504211817 64 263 12.2 15.6 0.00 0.00 0.00 39 1009.5
20260504210836 64 279 7.0 12.2 0.00 0.00 0.00 40 1009.5
20260504205816 65 305 10.4 14.8 0.00 0.00 0.00 41 1009.6
20260504204816 65 266 8.7 14.8 0.00 0.00 0.00 37 1009.5
20260504203817 68 281 7.0 13.9 0.00 0.00 0.00 34 1010.1
20260504202817 68 162 5.2 7.8 0.00 0.00 0.00 34 1010.2
20260504201837 68 147 4.3 9.6 0.00 0.00 0.00 33 1010.1
20260504200816 68 100 7.8 12.2 0.00 0.00 0.00 33 1010.0
20260504195816 69 141 10.4 13.0 0.00 0.00 0.00 31 1009.7
20260504194816 69 120 10.4 13.9 0.00 0.00 0.00 32 1009.9
20260504193837 69 141 6.1 12.2 0.00 0.00 0.00 32 1009.9
20260504192816 69 125 9.6 13.9 0.00 0.00 0.00 32 1010.7
20260504191816 69 99 7.8 12.2 0.00 0.00 0.00 33 1010.8
20260504190816 70 119 7.0 13.0 0.00 0.00 0.00 32 1010.8
20260504185816 69 126 8.7 12.2 0.00 0.00 0.00 34 1011.1
20260504184816 69 122 7.0 13.0 0.00 0.00 0.00 34 1011.1
20260504183837 69 99 6.1 8.7 0.00 0.00 0.00 34 1011.3
20260504182816 69 106 3.5 10.4 0.00 0.00 0.00 34 1011.0
20260504181836 68 88 6.1 8.7 0.00 0.00 0.00 35 1011.1
20260504180836 67 137 5.2 8.7 0.00 0.00 0.00 36 1011.4
20260504175816 67 95 4.3 11.3 0.00 0.00 0.00 38 1012.2
20260504174816 67 88 7.8 12.2 0.00 0.00 0.00 37 1012.4
20260504173816 67 82 5.2 12.2 0.00 0.00 0.00 38 1012.4
20260504172816 66 86 9.6 12.2 0.00 0.00 0.00 38 1013.0
20260504171836 66 98 6.1 9.6 0.00 0.00 0.00 37 1013.0
20260504170837 66 130 7.0 10.4 0.00 0.00 0.00 38 1013.1
20260504150815 62 137 2.6 4.3 0.00 0.00 0.00 45 1014.0
20260504140815 57 327 0.9 2.6 0.00 0.00 0.00 54 1013.3
20260504130816 55 11 1.7 3.5 0.00 0.00 0.00 59 1013.5
20260504081817 58 118 1.7 3.5 0.00 0.00 0.00 32 1013.3
20260504080817 58 269 4.3 9.6 0.00 0.00 0.00 32 1013.2